Location: Rotheul
(50.2849°N, 11.2349°E)
Time: 22:11:47
(UTC+02:00)

ISS - Pass Details

Date: 18 July 2018
Orbit: 402 x 408 km, 51.6° (Epoch: 17 July)

Event Time Altitude Azimuth Distance (km) Brightness Sun altitude
Exits shadow 00:50:12 68° 147° (SSE) 442 -4.0 -18.3°
Drops below altitude 10° 00:53:24 10° 76° (ENE) 1,470 -0.9 -18.4°
Sets 00:55:29 0° 74° (ENE) 2,333 0.2 -18.4°
